This demonstration page uses our WeatherBlox Daily Observations layout. Learn more.

Left ArrowRight Arrow

Hourly Observations for July 2, 2016

Temp ( °F °C ) Dew Point ( °F °C ) Humidity (%) Winds ( mph kmh ) Pressure ( in mb ) Visibility ( mi km ) Precip ( " mm )
12:15 am 00:15 Cloudy 65 18.5 54 12 66 66 E 6 9 30.00 1016 10 16 N/A
12:35 am 00:35 Cloudy 65 18.4 53 11.7 65 65 E 7 11 30.00 1016 10 16 N/A
12:55 am 00:55 Cloudy 64 18 53 11.7 67 67 ESE 9 15 29.97 1015 10 16 N/A
1:15 am 01:15 Cloudy 65 18.3 52 11.2 63 63 SE 8 13 29.97 1015 10 16 N/A
1:35 am 01:35 Cloudy 64 17.6 53 11.6 68 68 ESE 8 13 29.94 1014 10 16 N/A
1:55 am 01:55 Cloudy 64 17.5 53 11.6 69 69 E 8 13 29.94 1014 10 16 N/A
2:15 am 02:15 Cloudy 64 17.5 53 11.6 69 69 E 9 15 29.94 1014 10 16 N/A
2:35 am 02:35 Cloudy with Light Rain 64 17.5 53 11.5 68 68 ESE 7 11 29.91 1013 10 16 N/A
2:55 am 02:55 Cloudy 64 17.5 54 12 70 70 E 8 13 29.91 1013 10 16 N/A
3:15 am 03:15 Cloudy 64 17.7 55 12.7 73 73 E 6 9 29.91 1013 10 16 N/A
3:35 am 03:35 Cloudy with Light Rain 63 17.3 57 14.1 82 82 ESE 7 11 29.91 1013 10 16 N/A
3:55 am 03:55 Cloudy 63 17 58 14.4 85 85 ESE 8 13 29.91 1013 10 16 N/A
4:15 am 04:15 Cloudy 62 16.8 58 14.3 85 85 E 6 9 29.91 1013 10 16 N/A
4:35 am 04:35 Cloudy 63 17 58 14.5 85 85 E 7 11 29.91 1013 10 16 N/A
4:55 am 04:55 Cloudy 62 16.7 57 14 84 84 E 7 11 29.91 1013 10 16 N/A
5:15 am 05:15 Cloudy 62 16.6 57 13.8 84 84 ENE 8 13 29.91 1013 10 16 N/A
5:35 am 05:35 Cloudy 62 16.5 57 14.1 86 86 ENE 7 11 29.91 1013 10 16 N/A
5:55 am 05:55 Cloudy 62 16.6 58 14.3 86 86 E 7 11 29.91 1013 10 16 N/A
6:15 am 06:15 Cloudy 62 16.7 58 14.6 88 88 E 8 13 29.91 1013 10 16 N/A
6:35 am 06:35 Cloudy 62 16.6 58 14.5 88 88 E 7 11 29.91 1013 10 16 N/A
6:55 am 06:55 Cloudy 62 16.7 59 15 90 90 E 7 11 29.91 1013 10 16 N/A
7:15 am 07:15 Cloudy 62 16.8 59 15.1 90 90 E 8 13 29.91 1013 10 16 N/A
7:35 am 07:35 Cloudy 63 17 60 15.4 90 90 E 7 11 29.91 1013 10 16 N/A
7:55 am 07:55 Cloudy 63 17.1 60 15.7 92 92 E 7 11 29.91 1013 10 16 N/A
8:15 am 08:15 Cloudy 63 17.2 61 16 93 93 E 7 11 29.91 1013 10 16 N/A
8:35 am 08:35 Cloudy 64 17.5 61 16.2 92 92 E 7 11 29.91 1013 10 16 N/A
8:55 am 08:55 Cloudy 64 17.6 62 16.5 93 93 E 7 11 29.91 1013 10 16 N/A
9:15 am 09:15 Cloudy 64 18 62 16.7 92 92 E 7 11 29.91 1013 7 11 N/A
9:35 am 09:35 Cloudy 65 18.1 63 17 93 93 E 8 13 29.91 1013 7 11 N/A
9:55 am 09:55 Cloudy 65 18.5 63 17.2 92 92 ESE 6 9 29.91 1013 7 11 N/A
10:15 am 10:15 Cloudy 66 18.8 64 17.5 92 92 E 7 11 29.91 1013 10 16 N/A
10:35 am 10:35 Cloudy 67 19.2 64 17.8 92 92 ESE 8 13 29.88 1012 10 16 N/A
10:55 am 10:55 Cloudy 67 19.5 64 18 91 91 E 6 9 29.88 1012 10 16 N/A
11:15 am 11:15 Cloudy 68 20 65 18.3 90 90 E 7 11 29.88 1012 10 16 N/A
11:35 am 11:35 Cloudy 68 20.1 65 18.5 91 91 E 7 11 29.88 1012 7 11 N/A
11:55 am 11:55 Cloudy with Mist and Fog 68 19.9 65 18.6 92 92 E 7 11 29.88 1012 3 5 N/A
12:15 pm 12:15 Cloudy with Light Rain 67 19.3 65 18.3 94 94 E 8 13 29.88 1012 2 2 N/A
12:35 pm 12:35 Cloudy with Mist and Fog 67 19.3 65 18.5 95 95 E 8 13 29.88 1012 2 2 N/A
12:55 pm 12:55 Cloudy with Mist and Fog 67 19.3 65 18.5 95 95 E 9 15 29.88 1012 2 2 N/A
1:15 pm 13:15 Cloudy with Mist and Fog 67 19.3 65 18.5 95 95 E 8 13 29.88 1012 3 4 N/A
1:35 pm 13:35 Cloudy with Mist and Fog 67 19.3 65 18.4 95 95 E 10 17 29.88 1012 3 5 N/A
1:55 pm 13:55 Cloudy with Mist and Fog 67 19.4 65 18.5 95 95 E 10 17 29.88 1012 4 6 N/A
2:15 pm 14:15 Cloudy with Mist and Fog 66 19.1 65 18.2 95 95 E 12 19 29.91 1013 4 6 N/A
2:35 pm 14:35 Cloudy with Mist and Fog 66 18.7 64 17.8 95 95 E 9 15 29.91 1013 2 3 N/A
2:55 pm 14:55 Cloudy with Mist and Fog 65 18.6 64 17.8 95 95 E 12 19 29.91 1013 1 2 N/A
3:15 pm 15:15 Cloudy with Fog 65 18.5 64 17.7 95 95 E 9 15 29.91 1013 1 1 N/A
3:35 pm 15:35 Cloudy with Fog 65 18.5 64 17.7 95 95 E 9 15 29.91 1013 1 1 N/A
3:55 pm 15:55 Cloudy with Mist and Fog 65 18.4 64 17.7 96 96 E 10 17 29.91 1013 1 1 N/A
4:15 pm 16:15 Cloudy with Mist and Fog 65 18.3 64 17.7 96 96 ENE 10 17 29.91 1013 1 1 N/A
4:35 pm 16:35 Cloudy with Fog 65 18.1 64 17.5 96 96 E 8 13 29.91 1013 1 1 N/A
4:55 pm 16:55 Cloudy with Fog 65 18.1 64 17.5 96 96 ENE 8 13 29.91 1013 1 1 N/A
5:15 pm 17:15 Cloudy with Fog 64 18 63 17.4 96 96 ENE 10 17 29.91 1013 1 1 N/A
5:35 pm 17:35 Cloudy with Mist and Fog 64 18 64 17.5 97 97 ENE 12 19 29.91 1013 1 2 N/A
5:55 pm 17:55 Cloudy with Mist and Fog 64 18 63 17.3 96 96 ENE 10 17 29.91 1013 2 3 N/A
6:15 pm 18:15 Cloudy with Mist and Fog 64 18 63 17.3 96 96 E 9 15 29.91 1013 3 4 N/A
6:35 pm 18:35 Cloudy with Mist and Fog 65 18.2 64 17.5 96 96 ENE 8 13 29.91 1013 5 8 N/A
6:55 pm 18:55 Cloudy 65 18.3 63 17.4 95 95 ENE 8 13 29.91 1013 10 16 N/A
7:15 pm 19:15 Cloudy 65 18.2 63 17.2 94 94 ENE 8 13 29.91 1013 10 16 N/A
7:35 pm 19:35 Cloudy 65 18.1 63 17 93 93 ENE 10 17 29.91 1013 10 16 N/A
7:55 pm 19:55 Cloudy 64 18 63 17 94 94 ENE 8 13 29.91 1013 7 11 N/A
8:15 pm 20:15 Cloudy with Mist and Fog 64 17.8 63 17 95 95 ENE 10 17 29.91 1013 3 5 N/A
8:35 pm 20:35 Cloudy with Mist and Fog 64 17.6 62 16.8 95 95 ENE 10 17 29.91 1013 3 5 N/A
8:55 pm 20:55 Cloudy with Mist and Fog 64 17.6 62 16.8 95 95 ENE 9 15 29.91 1013 4 6 N/A
9:15 pm 21:15 Cloudy with Mist and Fog 64 17.5 62 16.7 95 95 NE 10 17 29.91 1013 3 5 N/A
9:35 pm 21:35 Cloudy with Mist and Fog 63 17.4 62 16.6 95 95 ENE 8 13 29.91 1013 3 4 N/A
9:55 pm 21:55 Cloudy with Mist and Fog 63 17.2 62 16.5 96 96 ENE 9 15 29.91 1013 3 4 N/A
10:15 pm 22:15 Cloudy with Mist and Fog 63 17.1 62 16.5 96 96 NE 8 13 29.91 1013 3 5 N/A
10:35 pm 22:35 Cloudy with Mist and Fog 63 17.1 62 16.5 96 96 ENE 8 13 29.94 1014 3 5 N/A
10:55 pm 22:55 Cloudy with Mist and Fog 63 17.1 62 16.5 96 96 ENE 9 15 29.94 1014 3 5 N/A
11:15 pm 23:15 Cloudy with Mist and Fog 63 17 62 16.5 97 97 NE 8 13 29.94 1014 4 6 N/A
11:35 pm 23:35 Cloudy with Mist and Fog 63 17 62 16.5 97 97 ENE 7 11 29.91 1013 4 6 N/A
11:55 pm 23:55 Cloudy with Mist and Fog 63 17 62 16.4 96 96 NE 9 15 29.91 1013 4 6 N/A

Powered by AerisWeather